sat.trackr.live / text

‹ back to catalog

STARLINK-35378

NORAD 65794 · 2025-218D

PAYLOAD ACTIVE UNKNOWN

§ Identity

Operator
Country
US
Launch date
2025-09-26
Launch site
AFWTR
Launch vehicle
Mass (kg)
RCS (m²)

Purposes: comms

External: N2YO · Heavens-Above · Gunter

§ Orbital elements

Epoch: 2026-05-25T02:19:21.885312Z

Period
95.64 min
Inclination
97.4543°
Eccentricity
0.0002278
Mean motion
15.05665538 rev/d
Perigee alt
547.9 km
Apogee alt
551.0 km
Semi-major
6,927.6 km
B*
1.2522e-4
RAAN
7.8408°
Arg perigee
64.8597°
Mean anomaly
295.2866°
Rev number
3,646

§ Raw data

STARLINK-353781 65794U 25218D   26145.09678108  .00001749  00000+0  12522-3 0  99912 65794  97.4543   7.8408 0002278  64.8597 295.2866 15.05665538 36461

JSON: /api/v1/satellites/65794 · /tle

For live sub-satellite position, see the globe view (requires WebGL).

§ Visibility from observer

Set your observer location to see the next 7 days of passes ≥ 10°. The values pass through the URL so the page stays shareable.

No JS? Fill the form by hand. The geolocation button needs JavaScript.